This demonstration page uses our WeatherBlox Daily Observations layout. Learn more.

Left ArrowRight Arrow

41.86663, -103.66717

Hourly Observations for November 28, 2019

Temp ( °F °C ) Dew Point ( °F °C ) Humidity (%) Winds ( mph kmh ) Pressure ( in mb ) Visibility ( mi km ) Precip ( " mm )
12:53 am 00:53 Cloudy 20 -6.7 17 -8.3 89 89 ESE 18 30 30.17 1022 10 16 0.00 0.00
1:53 am 01:53 Cloudy 21 -6.1 18 -7.8 88 88 ESE 20 31 30.16 1021 10 16 0.00 0.00
2:53 am 02:53 Cloudy 22 -5.6 19 -7.2 89 89 ESE 17 28 30.14 1021 10 16 0.00 0.00
3:53 am 03:53 Cloudy 22 -5.6 19 -7.2 89 89 ESE 18 30 30.13 1020 10 16 0.00 0.00
4:53 am 04:53 Partly Cloudy 21 -6.1 19 -7.2 92 92 ESE 21 33 30.11 1020 10 16 0.00 0.00
5:24 am 05:24 Mostly Cloudy 22 -5.6 19 -7.2 89 89 ESE 23 37 30.17 1022 10 16 0.00 0.00
5:53 am 05:53 Cloudy 22 -5.6 20 -6.7 92 92 ESE 22 35 30.10 1019 10 16 0.00 0.00
6:04 am 06:04 Cloudy 22 -5.6 20 -6.7 92 92 ESE 21 33 30.17 1022 10 16 0.00 0.00
6:25 am 06:25 Cloudy 22 -5.6 20 -6.7 92 92 ESE 23 37 30.18 1022 10 16 0.00 0.00
6:53 am 06:53 Cloudy 23 -5 21 -6.1 92 92 ESE 22 35 30.11 1020 10 16 0.00 0.00
7:14 am 07:14 Cloudy 23 -5 21 -6.1 92 92 ESE 24 39 30.15 1021 9 14 0.00 0.00
7:53 am 07:53 Cloudy 25 -3.9 23 -5 92 92 ESE 18 30 30.08 1019 9 14 0.00 0.00
8:53 am 08:53 Cloudy 27 -2.8 25 -3.9 92 92 SE 21 33 30.06 1018 10 16 0.00 0.00
9:53 am 09:53 Cloudy 28 -2.2 26 -3.3 92 92 SE 18 30 30.06 1018 10 16 0.00 0.00
10:53 am 10:53 Cloudy 30 -1.1 27 -2.8 88 88 ESE 14 22 30.06 1018 10 16 0.00 0.00
11:37 am 11:37 Cloudy 30 -1.1 27 -2.8 88 88 ESE 21 33 30.06 1018 10 16 0.00 0.00
11:53 am 11:53 Cloudy 29 -1.7 27 -2.8 92 92 ESE 18 30 30.04 1017 10 16 0.00 0.00
12:53 pm 12:53 Cloudy 31 -0.6 28 -2.2 89 89 SE 14 22 30.03 1017 10 16 0.00 0.00
1:53 pm 13:53 Cloudy 32 0 29 -1.7 88 88 SE 13 20 29.99 1016 10 16 0.00 0.00
2:53 pm 14:53 Cloudy 32 0 29 -1.7 88 88 SE 14 22 29.99 1016 10 16 0.00 0.00
3:11 pm 15:11 Cloudy 31 -0.6 29 -1.7 92 92 SE 16 26 30.02 1017 10 16 0.00 0.00
3:53 pm 15:53 Cloudy 31 -0.6 29 -1.7 92 92 SE 14 22 30.01 1016 10 16 0.00 0.00
4:53 pm 16:53 Cloudy with Mist and Fog 30 -1.1 29 -1.7 96 96 ESE 14 22 30.02 1017 4 6 0.00 0.00
5:53 pm 17:53 Cloudy with Mist and Fog 30 -1.1 29 -1.7 96 96 ESE 15 24 30.02 1017 5 8 0.00 0.00
6:53 pm 18:53 Cloudy with Mist and Fog 30 -1.1 29 -1.7 96 96 SE 15 24 30.01 1016 5 8 0.00 0.00
7:51 pm 19:51 Cloudy 30 -1 30 -1 100 100 ESE 13 20 30.05 1018 7 11 0.00 0.00
7:53 pm 19:53 Cloudy 30 -1.1 30 -1.1 100 100 ESE 13 20 30.01 1016 7 11 0.00 0.00
8:53 pm 20:53 Cloudy with Mist and Fog 31 -0.6 30 -1.1 96 96 SE 13 20 29.98 1015 4 6 0.00 0.00
9:53 pm 21:53 Cloudy with Mist and Fog 31 -0.6 30 -1.1 96 96 ESE 16 26 29.99 1016 4 6 0.00 0.00
10:53 pm 22:53 Cloudy with Mist and Fog 31 -0.6 31 -0.6 100 100 ESE 14 22 29.99 1016 3 5 0.00 0.00
11:53 pm 23:53 Cloudy with Mist and Fog 31 -0.6 31 -0.6 100 100 ESE 13 20 29.99 1016 4 6 0.00 0.00

Powered by AerisWeather